Hourly Data Report for September 03, 2010

PETERBOROUGH AWOS
ONTARIO

44°14'00.000" N
78°22'00.000" W
191.40 m
6166420

Download Data

Hourly Data (September 2010)
Hourly Data Report for September 3, 2010
TIME
LST
Temp Definition
°C
Dew Point Definition
°C
Rel Hum Definition
%
Precip. Amount Definition
mm

Wind Dir Definition
10's deg

Wind Spd Definition
km/h
Visibility Definition
km
Stn Press Definition
kPa
Hmdx Definition


Wind Chill Definition


Weather Definition


00:00 21.1 20.9 99   LegendMM LegendMM 6.4 98.64 29    
01:00 20.0 20.0 100   LegendMM LegendMM 1.9 98.58 28    
02:00 20.2 20.2 100   LegendMM LegendMM 3.4 98.51 28    
03:00 20.6 20.6 100   LegendMM LegendMM 6.4 98.41 29    
04:00 19.9 19.9 100   LegendMM LegendMM 4.8 98.37      
05:00 20.7 20.6 99   LegendMM LegendMM 4.8 98.32 29    
06:00 21.0 20.6 98   LegendMM LegendMM 5.6 98.30 29    
07:00 21.2 20.9 98   LegendMM LegendMM 5.6 98.29 30    
08:00 23.1 21.6 91   LegendMM LegendMM 12.9 98.18 32    
09:00 24.8 20.8 78   LegendMM LegendMM 15.0 98.10 33    
10:00 25.9 20.8 73   LegendMM LegendMM 15.0 98.05 34    
11:00 26.3 20.3 70   LegendMM LegendMM 15.0 97.98 34    
12:00 24.8 21.0 79   LegendMM LegendMM 15.0 97.91 33   Rain
13:00 24.4 19.9 76   LegendMM LegendMM 15.0 97.87 32    
14:00 21.8 21.1 96   LegendMM LegendMM 12.9 97.89 30   Rain
15:00 21.9 20.8 93   LegendMM LegendMM 15.0 97.86 30    
16:00 23.0 20.2 84   LegendMM LegendMM 15.0 97.82 31    
17:00 22.5 19.9 85   LegendMM LegendMM 15.0 97.81 30    
18:00 21.8 19.7 88   LegendMM LegendMM 15.0 97.82 29    
19:00 20.1 19.2 95   LegendMM LegendMM 15.0 97.83 27    
20:00 18.3 18.3 100   LegendMM LegendMM 2.4 97.82      
21:00 16.7 16.7 100   LegendMM LegendMM 1.8 97.81      
22:00 17.8 15.3 85   LegendMM LegendMM 15.0 97.89     Rain
23:00 16.0 15.4 96   LegendMM LegendMM 15.0 97.84      

Notes on Data Quality.

Legend

  • E = Estimated
  • M = Missing
  • NA = Not Available*
  • [empty] = Indicates an unobserved value
Date modified: